Time,TemperatureF,DewpointF,PressureIn,WindDirection,WindDirectionDegrees,WindSpeedMPH,WindSpeedGustMPH,Humidity,HourlyPrecipIn,Conditions,Clouds,dailyrainin,SoftwareType,DateUTC
2013-03-18 00:02:00,61.0,50.0,30.06,SW,230,5.0,-999.0,67,0.00,,,-99.99,,2013-03-18 04:02:00,
2013-03-18 00:12:00,61.0,50.0,30.06,SW,230,5.0,-999.0,67,0.00,,,-99.99,,2013-03-18 04:12:00,
2013-03-18 00:22:00,61.0,48.0,30.05,SSW,200,3.0,-999.0,63,0.00,,,-99.99,,2013-03-18 04:22:00,
2013-03-18 00:32:00,61.0,48.0,30.05,SSW,200,3.0,-999.0,63,0.00,,,-99.99,,2013-03-18 04:32:00,
2013-03-18 00:41:00,61.0,48.0,30.05,SSW,200,3.0,-999.0,63,0.00,,,-99.99,,2013-03-18 04:41:00,
2013-03-18 00:52:00,61.0,48.0,30.05,SSW,200,3.0,-999.0,63,0.00,,,-99.99,,2013-03-18 04:52:00,
2013-03-18 01:01:00,61.0,48.0,30.05,SSW,200,3.0,-999.0,63,0.00,,,-99.99,,2013-03-18 05:01:00,
2013-03-18 01:22:00,55.0,52.0,30.05,North,0,0.0,-999.0,87,0.00,,,-99.99,,2013-03-18 05:22:00,
2013-03-18 01:31:00,57.0,52.0,30.05,North,0,0.0,-999.0,82,0.00,,,-99.99,,2013-03-18 05:31:00,
2013-03-18 01:42:00,57.0,52.0,30.05,North,0,0.0,-999.0,82,0.00,,,-99.99,,2013-03-18 05:42:00,
2013-03-18 01:51:00,57.0,52.0,30.05,North,0,0.0,-999.0,82,0.00,,,-99.99,,2013-03-18 05:51:00,
2013-03-18 02:01:00,57.0,52.0,30.05,North,0,0.0,-999.0,82,0.00,,,-99.99,,2013-03-18 06:01:00,
2013-03-18 02:21:00,57.0,54.0,30.05,SSW,200,3.0,-999.0,87,0.00,,,-99.99,,2013-03-18 06:21:00,
2013-03-18 02:31:00,57.0,54.0,30.05,SW,220,3.0,-999.0,87,0.00,,,-99.99,,2013-03-18 06:31:00,
2013-03-18 02:41:00,57.0,54.0,30.05,SW,220,3.0,-999.0,87,0.00,,,-99.99,,2013-03-18 06:41:00,
2013-03-18 02:51:00,57.0,54.0,30.05,North,0,0.0,-999.0,87,0.00,,,-99.99,,2013-03-18 06:51:00,
2013-03-18 03:01:00,57.0,54.0,30.05,North,0,0.0,-999.0,87,0.00,,,-99.99,,2013-03-18 07:01:00,
2013-03-18 03:11:00,57.0,54.0,30.05,North,0,0.0,-999.0,87,0.00,,,-99.99,,2013-03-18 07:11:00,
2013-03-18 03:21:00,59.0,55.0,30.05,North,0,0.0,-999.0,87,0.00,,,-99.99,,2013-03-18 07:21:00,
2013-03-18 03:31:00,59.0,55.0,30.05,North,0,0.0,-999.0,87,0.00,,,-99.99,,2013-03-18 07:31:00,
2013-03-18 03:41:00,59.0,55.0,30.05,North,0,0.0,-999.0,87,0.00,,,-99.99,,2013-03-18 07:41:00,
2013-03-18 03:52:00,57.0,57.0,30.05,NE,50,5.0,-999.0,100,0.00,,,-99.99,,2013-03-18 07:52:00,
2013-03-18 04:01:00,57.0,57.0,30.05,NE,50,5.0,-999.0,100,0.00,,,-99.99,,2013-03-18 08:01:00,
2013-03-18 04:21:00,55.0,55.0,30.05,NNE,30,9.0,-999.0,100,0.00,,,-99.99,,2013-03-18 08:21:00,
2013-03-18 04:31:00,55.0,55.0,30.04,ENE,70,7.0,-999.0,100,0.00,,,-99.99,,2013-03-18 08:31:00,
2013-03-18 04:42:00,55.0,55.0,30.04,ENE,70,7.0,-999.0,100,0.00,,,-99.99,,2013-03-18 08:42:00,
2013-03-18 04:51:00,55.0,55.0,30.04,ENE,60,6.0,-999.0,100,0.00,,,-99.99,,2013-03-18 08:51:00,
2013-03-18 05:01:00,55.0,55.0,30.04,ENE,60,6.0,-999.0,100,0.00,,,-99.99,,2013-03-18 09:01:00,
2013-03-18 05:11:00,55.0,55.0,30.04,ENE,60,6.0,-999.0,100,0.00,,,-99.99,,2013-03-18 09:11:00,
2013-03-18 05:22:00,55.0,55.0,30.05,NNE,20,9.0,-999.0,100,0.00,,,-99.99,,2013-03-18 09:22:00,
2013-03-18 05:32:00,54.0,54.0,30.07,ENE,60,5.0,-999.0,100,0.00,,,-99.99,,2013-03-18 09:32:00,
2013-03-18 05:42:00,54.0,54.0,30.07,ENE,60,5.0,-999.0,100,0.00,,,-99.99,,2013-03-18 09:42:00,
2013-03-18 05:52:00,54.0,54.0,30.07,East,80,5.0,-999.0,100,0.00,,,-99.99,,2013-03-18 09:52:00,
2013-03-18 06:02:00,54.0,54.0,30.07,East,80,5.0,-999.0,100,0.00,,,-99.99,,2013-03-18 10:02:00,
2013-03-18 06:12:00,54.0,54.0,30.07,East,80,5.0,-999.0,100,0.00,,,-99.99,,2013-03-18 10:12:00,
2013-03-18 06:22:00,54.0,54.0,30.07,East,100,5.0,-999.0,100,0.00,,,-99.99,,2013-03-18 10:22:00,
2013-03-18 06:32:00,54.0,54.0,30.08,East,80,6.0,-999.0,100,0.00,,,-99.99,,2013-03-18 10:32:00,
2013-03-18 06:41:00,54.0,54.0,30.08,East,80,6.0,-999.0,100,0.00,,,-99.99,,2013-03-18 10:41:00,
2013-03-18 06:52:00,54.0,54.0,30.08,ENE,60,8.0,-999.0,100,0.00,,,-99.99,,2013-03-18 10:52:00,
2013-03-18 07:02:00,54.0,54.0,30.08,ENE,60,8.0,-999.0,100,0.00,,,-99.99,,2013-03-18 11:02:00,
2013-03-18 07:11:00,54.0,54.0,30.08,ENE,60,8.0,-999.0,100,0.00,,,-99.99,,2013-03-18 11:11:00,
2013-03-18 07:21:00,54.0,54.0,30.08,ENE,70,5.0,-999.0,100,0.00,,,-99.99,,2013-03-18 11:21:00,
2013-03-18 07:31:00,54.0,54.0,30.08,ENE,70,5.0,-999.0,100,0.00,,,-99.99,,2013-03-18 11:31:00,
2013-03-18 07:41:00,54.0,54.0,30.08,ENE,70,5.0,-999.0,100,0.00,,,-99.99,,2013-03-18 11:41:00,
2013-03-18 07:51:00,54.0,54.0,30.08,ENE,60,6.0,-999.0,100,0.00,,,-99.99,,2013-03-18 11:51:00,
2013-03-18 08:01:00,54.0,54.0,30.08,ENE,60,6.0,-999.0,100,0.00,,,-99.99,,2013-03-18 12:01:00,
2013-03-18 08:12:00,54.0,54.0,30.08,ENE,60,6.0,-999.0,100,0.00,,,0.00,,2013-03-18 12:12:00,
2013-03-18 08:21:00,54.0,54.0,30.09,East,80,6.0,-999.0,100,0.00,,,0.00,,2013-03-18 12:21:00,
2013-03-18 08:31:00,54.0,54.0,30.10,ENE,60,7.0,-999.0,100,0.00,,,0.00,,2013-03-18 12:31:00,
2013-03-18 08:41:00,54.0,54.0,30.10,ENE,60,7.0,-999.0,100,0.00,,,0.00,,2013-03-18 12:41:00,
2013-03-18 08:51:00,54.0,54.0,30.10,ENE,60,7.0,-999.0,100,0.00,,,0.00,,2013-03-18 12:51:00,
2013-03-18 09:01:00,54.0,54.0,30.10,ENE,60,7.0,-999.0,100,0.00,,,0.00,,2013-03-18 13:01:00,
2013-03-18 09:11:00,54.0,54.0,30.10,ENE,60,7.0,-999.0,100,0.00,,,-99.99,,2013-03-18 13:11:00,
2013-03-18 09:21:00,54.0,54.0,30.11,East,100,7.0,-999.0,100,0.00,,,-99.99,,2013-03-18 13:21:00,
2013-03-18 09:41:00,54.0,54.0,30.11,East,100,7.0,-999.0,100,0.00,,,-99.99,,2013-03-18 13:41:00,
2013-03-18 09:51:00,54.0,54.0,30.12,ENE,70,9.0,-999.0,100,0.00,,,-99.99,,2013-03-18 13:51:00,
2013-03-18 10:01:00,54.0,54.0,30.12,ENE,70,9.0,-999.0,100,0.00,,,-99.99,,2013-03-18 14:01:00,
2013-03-18 10:21:00,54.0,54.0,30.11,NE,50,6.0,-999.0,100,0.00,,,-99.99,,2013-03-18 14:21:00,
2013-03-18 10:31:00,54.0,54.0,30.12,ENE,60,8.0,-999.0,100,0.00,,,-99.99,,2013-03-18 14:31:00,
2013-03-18 10:42:00,54.0,54.0,30.12,ENE,60,8.0,-999.0,100,0.00,,,-99.99,,2013-03-18 14:42:00,
2013-03-18 10:51:00,54.0,54.0,30.12,ENE,60,8.0,-999.0,100,0.00,,,-99.99,,2013-03-18 14:51:00,
2013-03-18 11:01:00,54.0,54.0,30.12,ENE,60,8.0,-999.0,100,0.00,,,-99.99,,2013-03-18 15:01:00,
2013-03-18 11:21:00,55.0,54.0,30.12,ESE,120,8.0,-999.0,93,0.00,,,-99.99,,2013-03-18 15:21:00,
2013-03-18 11:32:00,57.0,54.0,30.11,East,90,7.0,-999.0,87,0.00,,,-99.99,,2013-03-18 15:32:00,
2013-03-18 11:42:00,57.0,54.0,30.11,East,90,7.0,-999.0,87,0.00,,,-99.99,,2013-03-18 15:42:00,
2013-03-18 11:51:00,57.0,54.0,30.11,East,90,7.0,-999.0,87,0.00,,,-99.99,,2013-03-18 15:51:00,
2013-03-18 12:02:00,57.0,54.0,30.11,East,90,7.0,-999.0,87,0.00,,,-99.99,,2013-03-18 16:02:00,
2013-03-18 12:12:00,57.0,54.0,30.11,East,90,7.0,-999.0,87,0.00,,,-99.99,,2013-03-18 16:12:00,
2013-03-18 12:22:00,57.0,54.0,30.10,ESE,110,10.0,-999.0,87,0.00,,,-99.99,,2013-03-18 16:22:00,
2013-03-18 12:32:00,57.0,54.0,30.09,East,90,9.0,-999.0,87,0.00,,,-99.99,,2013-03-18 16:32:00,
2013-03-18 12:42:00,59.0,54.0,30.09,ESE,120,8.0,-999.0,82,0.00,,,-99.99,,2013-03-18 16:42:00,
2013-03-18 12:52:00,59.0,52.0,30.09,ENE,70,8.0,-999.0,76,0.00,,,-99.99,,2013-03-18 16:52:00,
2013-03-18 13:02:00,59.0,52.0,30.09,ENE,70,8.0,-999.0,76,0.00,,,-99.99,,2013-03-18 17:02:00,
2013-03-18 13:11:00,59.0,52.0,30.09,ENE,70,8.0,-999.0,76,0.00,,,-99.99,,2013-03-18 17:11:00,
2013-03-18 13:21:00,61.0,54.0,30.08,East,100,7.0,-999.0,77,0.00,,,-99.99,,2013-03-18 17:21:00,
2013-03-18 13:31:00,59.0,54.0,30.08,SE,130,9.0,-999.0,82,0.00,,,-99.99,,2013-03-18 17:31:00,
2013-03-18 13:42:00,61.0,54.0,30.08,ESE,120,10.0,-999.0,77,0.00,,,-99.99,,2013-03-18 17:42:00,
2013-03-18 13:52:00,61.0,54.0,30.07,East,100,10.0,-999.0,77,0.00,,,-99.99,,2013-03-18 17:52:00,
2013-03-18 14:11:00,61.0,54.0,30.07,East,100,10.0,-999.0,77,0.00,,,-99.99,,2013-03-18 18:11:00,
2013-03-18 14:31:00,59.0,54.0,30.04,SE,130,12.0,-999.0,82,0.00,,,-99.99,,2013-03-18 18:31:00,
2013-03-18 14:41:00,59.0,54.0,30.04,SE,130,12.0,-999.0,82,0.00,,,-99.99,,2013-03-18 18:41:00,
2013-03-18 14:51:00,57.0,54.0,30.03,ESE,120,9.0,-999.0,87,0.00,,,-99.99,,2013-03-18 18:51:00,
2013-03-18 15:31:00,57.0,54.0,30.01,ESE,120,8.0,-999.0,87,0.00,,,-99.99,,2013-03-18 19:31:00,
2013-03-18 15:41:00,57.0,54.0,30.01,ESE,120,8.0,-999.0,87,0.00,,,-99.99,,2013-03-18 19:41:00,
2013-03-18 15:52:00,57.0,54.0,30.00,ESE,120,9.0,-999.0,87,0.00,,,-99.99,,2013-03-18 19:52:00,
2013-03-18 16:01:00,57.0,54.0,30.00,ESE,120,9.0,-999.0,87,0.00,,,-99.99,,2013-03-18 20:01:00,
2013-03-18 16:21:00,61.0,55.0,29.99,SE,130,9.0,-999.0,82,0.00,,,-99.99,,2013-03-18 20:21:00,
2013-03-18 16:31:00,57.0,55.0,29.99,SE,140,12.0,-999.0,93,0.00,,,-99.99,,2013-03-18 20:31:00,
2013-03-18 16:42:00,57.0,55.0,29.99,SE,140,12.0,-999.0,93,0.00,,,-99.99,,2013-03-18 20:42:00,
2013-03-18 17:01:00,57.0,55.0,29.99,SE,140,12.0,-999.0,93,0.00,,,-99.99,,2013-03-18 21:01:00,
2013-03-18 17:21:00,57.0,55.0,29.98,SE,140,10.0,-999.0,93,0.00,,,-99.99,,2013-03-18 21:21:00,
2013-03-18 17:32:00,57.0,55.0,29.97,SE,130,7.0,-999.0,93,0.00,,,-99.99,,2013-03-18 21:32:00,
2013-03-18 17:42:00,57.0,55.0,29.97,SE,130,7.0,-999.0,93,0.00,,,-99.99,,2013-03-18 21:42:00,
2013-03-18 17:52:00,57.0,55.0,29.98,ESE,120,5.0,-999.0,93,0.00,,,-99.99,,2013-03-18 21:52:00,
2013-03-18 18:02:00,57.0,55.0,29.98,ESE,120,5.0,-999.0,93,0.00,,,-99.99,,2013-03-18 22:02:00,
2013-03-18 18:12:00,57.0,55.0,29.98,ESE,120,5.0,-999.0,93,0.00,,,-99.99,,2013-03-18 22:12:00,
2013-03-18 18:22:00,57.0,57.0,29.97,SE,140,7.0,-999.0,100,0.00,,,-99.99,,2013-03-18 22:22:00,
2013-03-18 18:32:00,57.0,57.0,29.96,SE,140,7.0,-999.0,100,0.00,,,-99.99,,2013-03-18 22:32:00,
2013-03-18 18:41:00,57.0,57.0,29.96,SE,140,7.0,-999.0,100,0.00,,,-99.99,,2013-03-18 22:41:00,
2013-03-18 18:52:00,57.0,57.0,29.95,ESE,120,6.0,-999.0,100,0.00,,,-99.99,,2013-03-18 22:52:00,
2013-03-18 19:02:00,57.0,57.0,29.95,ESE,120,6.0,-999.0,100,0.00,,,-99.99,,2013-03-18 23:02:00,
2013-03-18 19:11:00,57.0,57.0,29.95,ESE,120,6.0,-999.0,100,0.00,,,-99.99,,2013-03-18 23:11:00,
2013-03-18 19:22:00,57.0,57.0,29.95,East,100,5.0,-999.0,100,0.00,,,-99.99,,2013-03-18 23:22:00,
2013-03-18 19:31:00,57.0,57.0,29.95,SE,140,6.0,-999.0,100,0.00,,,-99.99,,2013-03-18 23:31:00,
2013-03-18 19:41:00,57.0,57.0,29.95,SE,140,5.0,-999.0,100,0.00,,,-99.99,,2013-03-18 23:41:00,
2013-03-18 19:52:00,57.0,57.0,29.95,SE,130,3.0,-999.0,100,0.00,,,-99.99,,2013-03-18 23:52:00,
2013-03-18 20:01:00,57.0,57.0,29.95,SE,130,3.0,-999.0,100,0.00,,,-99.99,,2013-03-19 00:01:00,
2013-03-18 20:11:00,57.0,57.0,29.95,SE,130,3.0,-999.0,100,0.00,,,-99.99,,2013-03-19 00:11:00,
2013-03-18 20:21:00,55.0,55.0,29.93,SE,130,5.0,-999.0,100,0.00,,,-99.99,,2013-03-19 00:21:00,
2013-03-18 20:32:00,55.0,55.0,29.93,SE,130,5.0,-999.0,100,0.00,,,-99.99,,2013-03-19 00:32:00,
2013-03-18 20:51:00,57.0,57.0,29.92,North,0,0.0,-999.0,100,0.00,,,-99.99,,2013-03-19 00:51:00,
2013-03-18 21:21:00,55.0,55.0,29.93,North,0,0.0,-999.0,100,0.00,,,-99.99,,2013-03-19 01:21:00,
2013-03-18 21:31:00,55.0,55.0,29.93,North,0,0.0,-999.0,100,0.00,,,-99.99,,2013-03-19 01:31:00,
2013-03-18 21:41:00,55.0,55.0,29.93,North,0,0.0,-999.0,100,0.00,,,-99.99,,2013-03-19 01:41:00,
2013-03-18 21:51:00,55.0,55.0,29.90,SE,130,6.0,-999.0,100,0.00,,,-99.99,,2013-03-19 01:51:00,
2013-03-18 22:01:00,55.0,55.0,29.90,SE,130,6.0,-999.0,100,0.00,,,-99.99,,2013-03-19 02:01:00,
2013-03-18 22:11:00,55.0,55.0,29.90,SE,130,6.0,-999.0,100,0.00,,,-99.99,,2013-03-19 02:11:00,
2013-03-18 22:21:00,55.0,55.0,29.88,SE,140,9.0,-999.0,100,0.00,,,-99.99,,2013-03-19 02:21:00,
2013-03-18 22:41:00,55.0,55.0,29.87,SE,130,3.0,-999.0,100,0.00,,,-99.99,,2013-03-19 02:41:00,
2013-03-18 22:51:00,57.0,57.0,29.88,North,0,0.0,-999.0,100,0.00,,,-99.99,,2013-03-19 02:51:00,
2013-03-18 23:01:00,57.0,57.0,29.88,North,0,0.0,-999.0,100,0.00,,,-99.99,,2013-03-19 03:01:00,
2013-03-18 23:11:00,57.0,57.0,29.88,North,0,0.0,-999.0,100,0.00,,,-99.99,,2013-03-19 03:11:00,
2013-03-18 23:21:00,61.0,61.0,29.88,South,180,6.0,-999.0,100,0.00,,,-99.99,,2013-03-19 03:21:00,
2013-03-18 23:32:00,61.0,61.0,29.88,South,180,6.0,-999.0,100,0.00,,,-99.99,,2013-03-19 03:32:00,
2013-03-18 23:42:00,61.0,61.0,29.88,South,180,6.0,-999.0,100,0.00,,,-99.99,,2013-03-19 03:42:00,
2013-03-18 23:53:00,61.0,61.0,29.88,South,180,6.0,-999.0,100,0.00,,,-99.99,,2013-03-19 03:53:00,